Weather History for Mora, MN

Change the Weather History Date:

Saturday, May 11, 2013

  Actual Average Record
Temperature  
Mean Temperature 40 °F -  
Max Temperature 46 °F 66 °F 86 °F (1961)
Min Temperature 33 °F 41 °F 21 °F (1946)
Degree Days  
Heating Degree Days 26    
Moisture  
Dew Point 26 °F    
Average Humidity 57    
Maximum Humidity 81    
Minimum Humidity 39    
Precipitation  
Precipitation 0.00 in - - ()
Sea Level Pressure  
Sea Level Pressure 30.10 in    
Wind  
Wind Speed 18 mph (NNW)    
Max Wind Speed 29 mph    
Max Gust Speed 39 mph    
Visibility 10 miles    
Events      
Averages and records for this station are not official NWS values.
T = Trace of Precipitation, MM = Missing Value Source: NWS Daily Summary

Daily Weather History Graph

Daily Weather History Graph

Search for Another Location

Airport:

Trip Planner

Search our weather history database for the weather conditions in past years. The results will help you decide how hot, cold, wet, or windy it might be!

Date:

Astronomy

May. 11, 2013 Rise Set
Actual Time 5:45 AM CDT 8:33 PM CDT
Civil Twilight 5:11 AM CDT 9:08 PM CDT
Nautical Twilight 4:27 AM CDT 9:52 PM CDT
Astronomical Twilight 3:36 AM CDT 10:44 PM CDT
Moon 6:52 AM CDT (5/11) 10:16 PM CDT (5/11)
Length of Visible Light 15h 56m
Length of Day
14h 47m
Waxing Crescent, 3% of the Moon is Illuminated
May 11
Waxing Crescent
May 17
First Quarter
May 24
Full
May 31
Last Quarter
Jun 8
New

Hourly Weather History & Observations

Time (CDT) Temp. Windchill Dew Point Humidity Pressure Visibility Wind Dir Wind Speed Gust Speed Precip Events Conditions
12:11 AM 46.4 °F 39.2 °F 35.6 °F 66% 29.94 in 10.0 mi NNW 18.4 mph 26.5 mph N/A   Mostly Cloudy
12:31 AM 46.4 °F 37.9 °F 35.6 °F 66% 29.95 in 10.0 mi NNW 25.3 mph 36.8 mph N/A   Scattered Clouds
12:51 AM 44.6 °F 36.9 °F 33.8 °F 66% 29.96 in 10.0 mi NNW 18.4 mph 27.6 mph N/A   Mostly Cloudy
1:11 AM 44.6 °F 37.8 °F 32.0 °F 61% 29.97 in 10.0 mi North 15.0 mph 28.8 mph N/A   Scattered Clouds
1:31 AM 44.6 °F 38.8 °F 33.8 °F 66% 29.97 in 10.0 mi NW 11.5 mph - N/A   Clear
1:51 AM 42.8 °F 34.5 °F 32.0 °F 66% 29.98 in 10.0 mi NNW 18.4 mph 29.9 mph N/A   Clear
2:11 AM 41.0 °F 32.5 °F 28.4 °F 61% 29.99 in 10.0 mi NNW 17.3 mph 24.2 mph N/A   Clear
2:31 AM 37.4 °F 29.8 °F 28.4 °F 70% 29.99 in 10.0 mi NW 11.5 mph - N/A   Clear
2:51 AM 37.4 °F 28.2 °F 26.6 °F 65% 30.00 in 10.0 mi NNW 16.1 mph 27.6 mph N/A   Clear
3:11 AM 37.4 °F 28.5 °F 24.8 °F 60% 30.00 in 10.0 mi NNW 15.0 mph 25.3 mph N/A   Clear
3:31 AM 35.6 °F 26.6 °F 26.6 °F 70% 30.02 in 10.0 mi NW 13.8 mph - N/A   Clear
3:51 AM 35.6 °F 26.2 °F 26.6 °F 70% 30.02 in 10.0 mi NW 15.0 mph 18.4 mph N/A   Clear
4:11 AM 35.6 °F 27.5 °F 26.6 °F 70% 30.03 in 10.0 mi NW 11.5 mph - N/A   Clear
4:31 AM 35.6 °F 27.5 °F 26.6 °F 70% 30.04 in 10.0 mi NW 11.5 mph 20.7 mph N/A   Clear
4:51 AM 35.6 °F 26.6 °F 28.4 °F 75% 30.04 in 10.0 mi NNW 13.8 mph 19.6 mph N/A   Clear
5:11 AM 35.6 °F 26.6 °F 26.6 °F 70% 30.04 in 10.0 mi NNW 13.8 mph 25.3 mph N/A   Clear
5:31 AM 35.6 °F 26.6 °F 28.4 °F 75% 30.05 in 10.0 mi NNW 13.8 mph - N/A   Clear
5:51 AM 35.6 °F 26.2 °F 28.4 °F 75% 30.06 in 10.0 mi NNW 15.0 mph 23.0 mph N/A   Clear
6:11 AM 35.6 °F 27.5 °F 28.4 °F 75% 30.06 in 10.0 mi NNW 11.5 mph 20.7 mph N/A   Clear
6:31 AM 35.6 °F 28.0 °F 28.4 °F 75% 30.06 in 10.0 mi NW 10.4 mph - N/A   Clear
6:51 AM 35.6 °F 26.6 °F 28.4 °F 75% 30.07 in 10.0 mi NNW 13.8 mph 19.6 mph N/A   Clear
7:11 AM 35.6 °F 25.9 °F 28.4 °F 75% 30.07 in 10.0 mi NW 16.1 mph 19.6 mph N/A   Clear
7:31 AM 37.4 °F 27.2 °F 28.4 °F 70% 30.08 in 10.0 mi NNW 19.6 mph 28.8 mph N/A   Scattered Clouds
7:51 AM 37.4 °F 27.2 °F 30.2 °F 75% 30.08 in 10.0 mi NW 19.6 mph 29.9 mph N/A   Clear
8:11 AM 35.6 °F 24.5 °F 30.2 °F 81% 30.09 in 10.0 mi NNW 20.7 mph 34.5 mph N/A   Mostly Cloudy
8:31 AM 35.6 °F 25.2 °F 30.2 °F 81% 30.09 in 10.0 mi NW 18.4 mph 32.2 mph N/A   Overcast
8:51 AM 37.4 °F 26.4 °F 30.2 °F 75% 30.09 in 10.0 mi NW 23.0 mph 29.9 mph N/A   Overcast
9:11 AM 37.4 °F 27.8 °F 30.2 °F 75% 30.09 in 10.0 mi NNW 17.3 mph 28.8 mph N/A   Overcast
9:31 AM 39.2 °F 29.3 °F 30.2 °F 70% 30.09 in 10.0 mi NNW 20.7 mph 32.2 mph N/A   Overcast
9:51 AM 39.2 °F 29.6 °F 28.4 °F 65% 30.09 in 10.0 mi NW 19.6 mph 31.1 mph N/A   Mostly Cloudy
10:11 AM 41.0 °F 30.5 °F 26.6 °F 57% 30.09 in 10.0 mi NW 26.5 mph 36.8 mph N/A   Overcast
10:31 AM 44.6 °F 35.5 °F 28.4 °F 53% 30.10 in 10.0 mi NW 25.3 mph 34.5 mph N/A   Mostly Cloudy
10:51 AM 42.8 °F 32.9 °F 26.6 °F 53% 30.09 in 10.0 mi NW 26.5 mph 36.8 mph N/A   Scattered Clouds
11:11 AM 44.6 °F 35.5 °F 26.6 °F 49% 30.10 in 10.0 mi NW 25.3 mph 31.1 mph N/A   Scattered Clouds
11:31 AM 44.6 °F 35.5 °F 26.6 °F 49% 30.10 in 10.0 mi NW 25.3 mph 36.8 mph N/A   Scattered Clouds
11:51 AM 44.6 °F 34.9 °F 26.6 °F 49% 30.10 in 10.0 mi NW 28.8 mph 38.0 mph N/A   Scattered Clouds
12:11 PM 44.6 °F 34.9 °F 24.8 °F 46% 30.11 in 10.0 mi NNW 28.8 mph 35.7 mph N/A   Mostly Cloudy
12:31 PM 42.8 °F 32.7 °F 24.8 °F 49% 30.12 in 10.0 mi NW 27.6 mph 35.7 mph N/A   Overcast
12:51 PM 41.0 °F 30.9 °F 23.0 °F 49% 30.12 in 10.0 mi NW 24.2 mph 36.8 mph N/A   Overcast
1:11 PM 42.8 °F 32.9 °F 26.6 °F 53% 30.13 in 10.0 mi NW 26.5 mph 35.7 mph N/A   Overcast
1:31 PM 41.0 °F 30.9 °F 23.0 °F 49% 30.13 in 10.0 mi NW 24.2 mph 32.2 mph N/A   Overcast
1:51 PM 44.6 °F 35.5 °F 26.6 °F 49% 30.13 in 10.0 mi NW 25.3 mph 33.4 mph N/A   Overcast
2:11 PM 44.6 °F 35.7 °F 24.8 °F 46% 30.13 in 10.0 mi NNW 24.2 mph 33.4 mph N/A   Overcast
2:31 PM 44.6 °F 34.9 °F 24.8 °F 46% 30.14 in 10.0 mi NW 28.8 mph 39.1 mph N/A   Overcast
2:51 PM 44.6 °F 35.5 °F 24.8 °F 46% 30.13 in 10.0 mi NW 25.3 mph 34.5 mph N/A   Mostly Cloudy
3:11 PM 44.6 °F 35.3 °F 23.0 °F 43% 30.13 in 10.0 mi NNW 26.5 mph 33.4 mph N/A   Overcast
3:31 PM 44.6 °F 35.9 °F 23.0 °F 43% 30.13 in 10.0 mi NW 23.0 mph 36.8 mph N/A   Overcast
3:51 PM 44.6 °F 35.3 °F 23.0 °F 43% 30.13 in 10.0 mi NNW 26.5 mph 35.7 mph N/A   Overcast
4:11 PM 44.6 °F 35.7 °F 23.0 °F 43% 30.12 in 10.0 mi NW 24.2 mph 34.5 mph N/A   Mostly Cloudy
4:31 PM 44.6 °F 35.9 °F 23.0 °F 43% 30.13 in 10.0 mi NNW 23.0 mph 35.7 mph N/A   Mostly Cloudy
4:51 PM 44.6 °F 35.9 °F 23.0 °F 43% 30.13 in 10.0 mi NNW 23.0 mph 36.8 mph N/A   Mostly Cloudy
5:11 PM 44.6 °F 35.9 °F 23.0 °F 43% 30.13 in 10.0 mi NW 23.0 mph 32.2 mph N/A   Mostly Cloudy
5:31 PM 44.6 °F 35.5 °F 21.2 °F 39% 30.13 in 10.0 mi NNW 25.3 mph 34.5 mph N/A   Mostly Cloudy
5:51 PM 44.6 °F 36.1 °F 23.0 °F 43% 30.14 in 10.0 mi NNW 21.9 mph 31.1 mph N/A   Mostly Cloudy
6:11 PM 44.6 °F 35.3 °F 21.2 °F 39% 30.14 in 10.0 mi NNW 26.5 mph 34.5 mph N/A   Mostly Cloudy
6:31 PM 44.6 °F 35.9 °F 21.2 °F 39% 30.14 in 10.0 mi NNW 23.0 mph 32.2 mph N/A   Mostly Cloudy
6:51 PM 44.6 °F 37.2 °F 21.2 °F 39% 30.15 in 10.0 mi NNW 17.3 mph 26.5 mph N/A   Mostly Cloudy
7:11 PM 44.6 °F 37.2 °F 23.0 °F 43% 30.15 in 10.0 mi NW 17.3 mph 29.9 mph N/A   Mostly Cloudy
7:31 PM 42.8 °F 35.8 °F 21.2 °F 42% 30.15 in 10.0 mi NNW 13.8 mph 31.1 mph N/A   Scattered Clouds
7:51 PM 42.8 °F 35.4 °F 21.2 °F 42% 30.15 in 10.0 mi NW 15.0 mph 21.9 mph N/A   Mostly Cloudy
8:11 PM 42.8 °F 34.3 °F 21.2 °F 42% 30.15 in 10.0 mi NNW 19.6 mph 28.8 mph N/A   Mostly Cloudy
8:31 PM 41.0 °F 32.5 °F 19.4 °F 42% 30.16 in 10.0 mi NNW 17.3 mph 23.0 mph N/A   Scattered Clouds
8:51 PM 41.0 °F 34.7 °F 19.4 °F 42% 30.16 in 10.0 mi NNW 10.4 mph 19.6 mph N/A   Clear
9:11 PM 37.4 °F 32.1 °F 19.4 °F 48% 30.17 in 10.0 mi NNW 6.9 mph - N/A   Clear
9:31 PM 37.4 °F - 21.2 °F 52% 30.17 in 10.0 mi Calm Calm - N/A   Clear
9:51 PM 37.4 °F - 21.2 °F 52% 30.18 in 10.0 mi Calm Calm - N/A   Clear
10:11 PM 35.6 °F - 21.2 °F 56% 30.18 in 10.0 mi Calm Calm - N/A   Clear
10:31 PM 35.6 °F - 21.2 °F 56% 30.18 in 10.0 mi Calm Calm - N/A   Clear
10:51 PM 33.8 °F 30.8 °F 23.0 °F 65% 30.18 in 10.0 mi NNW 3.5 mph - N/A   Clear
11:11 PM 35.6 °F 31.7 °F 23.0 °F 60% 30.19 in 10.0 mi NNW 4.6 mph - N/A   Clear
11:31 PM 33.8 °F 30.8 °F 21.2 °F 60% 30.19 in 10.0 mi North 3.5 mph - N/A   Clear
11:51 PM 33.8 °F 30.8 °F 21.2 °F 60% 30.19 in 10.0 mi NNW 3.5 mph - N/A   Clear